Crestview, FL

7:17 PM CST on February 05, 2016 (GMT -0600)
Sikes

Weather History for KCEW - March, 2014

Change the Weather History Date:

Saturday, March 1, 2014

  Actual Average Record
Temperature  
Mean Temperature 57 °F -  
Max Temperature 73 °F 71 °F 84 °F (2012)
Min Temperature 41 °F 45 °F 19 °F (2002)
Degree Days  
Heating Degree Days 8    
Growing Degree Days 7 (Base 50)    
Moisture  
Dew Point 46 °F    
Average Humidity 70    
Maximum Humidity 96    
Minimum Humidity 44    
Precipitation  
Precipitation 0.00 in - - ()
Sea Level Pressure  
Sea Level Pressure 30.19 in    
Wind  
Wind Speed 4 mph (SE)    
Max Wind Speed 9 mph    
Max Gust Speed -    
Visibility 10 miles    
Events      
Averages and records for this station are not official NWS values.
T = Trace of Precipitation, MM = Missing Value Source: NWS Daily Summary

Daily Weather History Graph

Daily Weather History Graph

Search for Another Location

Airport or City:

Trip Planner

Search our weather history database for the weather conditions in past years. The results will help you decide how hot, cold, wet, or windy it might be!

Date:

Astronomy

Mar. 01, 2014 Rise Set
Actual Time 6:12 AM CST 5:44 PM CST
Civil Twilight 5:48 AM CST 6:08 PM CST
Nautical Twilight 5:20 AM CST 6:36 PM CST
Astronomical Twilight 4:52 AM CST 7:04 PM CST
Moon 6:09 AM CST (3/1) 6:25 PM CST (3/1)
Length of Visible Light 12h 20m
Length of Day
11h 32m
New Moon, 0% of the Moon is Illuminated
Mar 1
New Moon
Mar 8
First Quarter
Mar 16
Full
Mar 23
Last Quarter
Mar 30
New

Hourly Weather History & Observations

Time (CST) Temp. Windchill Dew Point Humidity Pressure Visibility Wind Dir Wind Speed Gust Speed Precip Events Conditions
12:53 AM 41.0 °F 35.8 °F 36.0 °F 82% 30.12 in 10.0 mi ESE 8.1 mph - N/A   Partly Cloudy
1:53 AM 44.1 °F 41.5 °F 37.9 °F 79% 30.13 in 10.0 mi NNW 4.6 mph - N/A   Mostly Cloudy
2:53 AM 46.9 °F - 39.0 °F 74% 30.15 in 10.0 mi North 3.5 mph - N/A   Overcast
3:53 AM 46.0 °F - 39.0 °F 76% 30.15 in 10.0 mi Calm Calm - N/A   Overcast
4:53 AM 43.0 °F 41.3 °F 39.0 °F 86% 30.17 in 10.0 mi NE 3.5 mph - N/A   Clear
5:53 AM 43.0 °F - 39.9 °F 89% 30.19 in 10.0 mi Calm Calm - N/A   Mostly Cloudy
6:53 AM 46.0 °F - 41.0 °F 83% 30.22 in 10.0 mi Calm Calm - N/A   Mostly Cloudy
7:53 AM 51.1 °F - 42.1 °F 71% 30.23 in 10.0 mi ENE 3.5 mph - N/A   Mostly Cloudy
8:53 AM 61.0 °F - 44.1 °F 54% 30.24 in 10.0 mi East 6.9 mph - N/A   Overcast
9:53 AM 66.0 °F - 46.0 °F 48% 30.24 in 10.0 mi Variable 5.8 mph - N/A   Partly Cloudy
10:53 AM 69.1 °F - 46.9 °F 45% 30.24 in 10.0 mi Variable 5.8 mph - N/A   Clear
11:53 AM 71.1 °F - 50.0 °F 47% 30.21 in 10.0 mi East 4.6 mph - N/A   Partly Cloudy
12:53 PM 73.0 °F - 51.1 °F 46% 30.18 in 10.0 mi SSE 4.6 mph - N/A   Mostly Cloudy
1:53 PM 73.0 °F - 50.0 °F 44% 30.16 in 10.0 mi SSW 4.6 mph - N/A   Partly Cloudy
2:53 PM 71.1 °F - 48.9 °F 45% 30.16 in 10.0 mi South 8.1 mph - N/A   Mostly Cloudy
3:53 PM 72.0 °F - 50.0 °F 46% 30.16 in 10.0 mi South 9.2 mph - N/A   Partly Cloudy
4:53 PM 69.1 °F - 50.0 °F 51% 30.17 in 10.0 mi South 6.9 mph - N/A   Clear
5:53 PM 63.0 °F - 52.0 °F 67% 30.18 in 10.0 mi South 6.9 mph - N/A   Clear
6:53 PM 59.0 °F - 52.0 °F 78% 30.19 in 10.0 mi South 4.6 mph - N/A   Clear
7:53 PM 55.9 °F - 52.0 °F 87% 30.21 in 10.0 mi Calm Calm - N/A   Clear
8:53 PM 51.1 °F - 48.9 °F 92% 30.23 in 10.0 mi Calm Calm - N/A   Clear
9:53 PM 48.9 °F - 46.9 °F 93% 30.22 in 9.0 mi Calm Calm - N/A   Clear
10:53 PM 46.9 °F - 45.0 °F 93% 30.22 in 7.0 mi Calm Calm - N/A   Clear
11:53 PM 46.0 °F - 45.0 °F 96% 30.21 in 8.0 mi Calm Calm - N/A   Clear